Location: Gro� Glienicke
(52.4675°N, 13.1079°E)
Time: 08:25:11
(UTC+00:00)

Cosmos 2344 - Pass Details

Date: 06 July 2020
Orbit: 1249 x 2993 km, 63.3° (Epoch: 04 August)

Event Time Altitude Azimuth Distance (km) Brightness Sun altitude
Exits shadow 22:05:05 - 203° (SSW) 3,454 5.4 -13.5°
Reaches altitude 10° 22:05:41 10° 202° (SSW) 3,235 5.2 -13.6°
Maximum altitude 22:12:57 59° 125° (SE) 1,452 3.6 -13.9°
Drops below altitude 10° 22:20:57 10° 49° (NE) 3,557 6.3 -14.1°
Sets 22:24:10 0° 46° (NE) 4,707 7.0 -14.2°
